User: anonymous   Login
Location: The Saddle
(36.8333°N, 80.3417°W)
Time: 08:16:06
(UTC-04:00)
Language:

Transit 4A - Orbit

View from above orbital plane
View from above orbital plane
View from above satellite
View from above satellite

Ground track
Ground track

The orbit data is extracted from the following two-line orbital elements,

1 00116U 61015A   25188.88376581  .00000004  00000-0  62001-4 0  9998
2 00116  66.8104  13.2547 0072664 159.5694 200.8319 13.92245818248775
Epoch (UTC): 07 July 2025 21:12:37
Eccentricity: 0.0072664
inclination: 66.8104°
perigee height: 868 km
apogee height: 974 km
right ascension of ascending node: 13.2547°
argument of perigee: 159.5694°
revolutions per day: 13.92245818
mean anomaly at epoch: 200.8319°
orbit number at epoch: 24877

The dashed part of the orbit path shows where the satellite is in the earth's shadow,  

DLR